Regional Weather Roundup
Issued by NWS

Home | Current Version | Previous Version | Graphics & Text | Print | Product List | Glossary On
Versions: 1 2 3 4 5 6 7 8 9 10 11 12 13 14 15 16 17 18 19 20 21 22 23 24 25 26 27 28 29 30 31 32 33 34 35 36 37 38 39 40 41 42 43 44 45 46 47 48 49 50
000
ASUS45 KABQ 230210
RWRNM
WEATHER ROUNDUP FOR NEW MEXICO
NATIONAL WEATHER SERVICE ALBUQUERQUE NM
800 PM MDT FRI AUG 22 2014

NOTE: "FAIR" MEANS FEW OR NO CLOUDS BELOW 12,000 FEET AGL WITH NO
       SIGNIFICANT WEATHER OR OBSTRUCTIONS TO VISION.

      THIS PRODUCT IS RELEASED AS TWO VERSIONS.  ONE VERSION NEAR
      THE TOP OF THE HOUR CONTAINING PRELIMINARY DATA FROM ALBUQUERQUE
      AND OTHER STATIONS.  A FINAL VERSION WITH ADDITIONAL DATA IS
      ISSUED ABOUT 10 MINUTES AFTER THE HOUR.

NMZ501-503-504-510>518-230300-
NORTHWEST PLATEAU/NORTHCENTRAL MOUNTAINS

CITY           SKY/WX    TMP DP  RH WIND       PRES   REMARKS
FARMINGTON     CLOUDY    61  55  81 E10G18    30.12S
LOS ALAMOS     MOCLDY    58  51  77 S6        30.26S
SANTA FE       MOCLDY    63  52  67 W9        30.20R
TAOS           MOCLDY    55  48  76 CALM      30.25S
ANGEL FIRE     FAIR      52  46  81 CALM      30.30S

$$
NMZ402-403-502-505>509-230300-
WESTCENTRAL MOUNTAINS/SOUTHWEST MOUNTAINS

CITY           SKY/WX    TMP DP  RH WIND       PRES   REMARKS
GALLUP         MOCLDY    68  42  38 SW8       30.18R
SILVER CITY    LGT RAIN  68  57  68 S6G28     30.15R

$$
NMZ407-409-411-412-230300-
SOUTHERN DESERTS

CITY           SKY/WX    TMP DP  RH WIND       PRES   REMARKS
LORDSBURG      CLOUDY    73  55  53 SW13G21   30.07R
DEMING         MOCLDY    70  64  81 S9        30.07R
LAS CRUCES     MOCLDY    74  61  63 S6        30.09R
HOLLOMAN AFB   MOCLDY    72  63  73 S6        30.06R
ALAMOGORDO     MOCLDY    68  63  83 S5        30.08R
T OR C         CLOUDY    70  57  63 NE14      30.10R

$$
NMZ519>523-230300-
CENTRAL VALLEYS/CENTRAL HIGHLANDS

CITY           SKY/WX    TMP DP  RH WIND       PRES   REMARKS
ALBUQUERQUE    LGT RAIN  62  55  77 N12       30.17F
DOUBLE EAGLE   MOCLDY    57  54  88 CALM      30.20F
MORIARTY ARPT  CLOUDY    63  55  75 NW7       30.22R
CLINES CORNERS MOCLDY    60  51  72 W13       30.22R
BELEN          DRIZZLE   62  60  93 CALM      30.15F
SOCORRO        LGT RAIN  64  60  85 CALM      30.13S

$$
NMZ524>526-539-540-230300-
SOUTHCENTRAL MOUNTAINS

CITY           SKY/WX    TMP DP  RH WIND       PRES   REMARKS
RUIDOSO        MOCLDY    61  55  82 NW6       30.24R

$$
NMZ527>531-230300-
NORTHEAST HIGHLANDS/NORTHEAST PLAINS

CITY           SKY/WX    TMP DP  RH WIND       PRES   REMARKS
LAS VEGAS      MOCLDY    60  49  66 S7        30.17S
RATON          PTCLDY    63  53  70 S8        30.10S
CLAYTON        PTCLDY    77  48  35 SW13      30.02R

$$
NMZ532>537-230300-
EASTCENTRAL PLAINS

CITY           SKY/WX    TMP DP  RH WIND       PRES   REMARKS
TUCUMCARI      MOCLDY    78  54  43 S5        29.99R
CANNON AFB     CLEAR     72  63  72 SW2       30.03S
CLOVIS AIRPORT   N/A     72  63  73 S6        30.06R

$$
NMZ028-029-538-230300-
SOUTHEAST PLAINS

CITY           SKY/WX    TMP DP  RH WIND       PRES   REMARKS
ROSWELL        MOCLDY    79  57  46 S14       30.01R
ARTESIA        MOCLDY    77  57  50 SE9       30.00S
CARLSBAD       CLOUDY    80  64  58 E6        29.98R
HOBBS          TSTM      72  64  78 SE6       30.06R


$$


USA.gov is the U.S. government's official web portal to all federal, state and local government web resources and services.